User: anonymous   Login
Location: Budapest
(47.4979°N, 19.0402°E)
Time: 04:11:23
(UTC+02:00)
Language:

UNISAT 6 - Orbit

View from above orbital plane
View from above orbital plane
View from above satellite
View from above satellite

Ground track
Ground track

The orbit data is extracted from the following two-line orbital elements,

1 40012U 14033C   18199.58026281 +.00000136 +00000-0 +27767-4 0  9991
2 40012 097.8042 074.6821 0059930 097.9499 262.8517 14.73838574219328
Epoch (UTC): 18 July 2018 13:55:34
Eccentricity: 0.0059930
inclination: 97.8042°
perigee height: 607 km
apogee height: 691 km
right ascension of ascending node: 74.6821°
argument of perigee: 97.9499°
revolutions per day: 14.73838574
mean anomaly at epoch: 262.8517°
orbit number at epoch: 21932

The dashed part of the orbit path shows where the satellite is in the earth's shadow,  

DLR